sat.trackr.live / text

‹ back to catalog

YAOGAN-31 02B

NORAD 47533 · 2021-007B

PAYLOAD ACTIVE UNKNOWN

§ Identity

Operator
Country
PRC
Launch date
2021-01-29
Launch site
JSC
Launch vehicle
Mass (kg)
RCS (m²)

External: N2YO · Heavens-Above · Gunter

§ Orbital elements

Epoch: 2026-09-13T04:38:33.616032Z

Period
107.03 min
Inclination
63.4015°
Eccentricity
0.0183972
Mean motion
13.45452452 rev/d
Perigee alt
951.7 km
Apogee alt
1,226.4 km
Semi-major
7,467.2 km
B*
-2.4480e-4
RAAN
275.9412°
Arg perigee
0.9344°
Mean anomaly
359.1991°
Rev number
27,607

§ Raw data

YAOGAN-31 02B1 47533U 21007B   26256.19344463 -.00000251  00000+0 -24480-3 0  99972 47533  63.4015 275.9412 0183972   0.9344 359.1991 13.45452452276077

JSON: /api/v1/satellites/47533 · /tle

For live sub-satellite position, see the globe view (requires WebGL).

§ Visibility from observer

Set your observer location to see the next 7 days of passes ≥ 10°. The values pass through the URL so the page stays shareable.

No JS? Fill the form by hand. The geolocation button needs JavaScript.